Year,Month,Day,Hour,Minute,Value (Times are PST for temperature in C)
2009,05,25,14,48,19.70
2009,05,25,14,49,19.60
2009,05,25,14,50,19.50
2009,05,25,14,51,19.40
2009,05,25,14,52,19.30
2009,05,25,14,53,19.30
2009,05,25,14,54,19.30
2009,05,25,14,55,19.30
2009,05,25,14,56,19.40
2009,05,25,14,57,19.40
2009,05,25,14,58,19.40
2009,05,25,14,59,19.40
2009,05,25,15,00,19.40
2009,05,25,15,01,19.40
2009,05,25,15,02,19.50
2009,05,25,15,03,19.50
2009,05,25,15,04,19.50
2009,05,25,15,05,19.50
2009,05,25,15,06,19.50
2009,05,25,15,07,19.60
2009,05,25,15,08,19.50
2009,05,25,15,09,19.50
2009,05,25,15,10,19.50
2009,05,25,15,11,19.50
2009,05,25,15,12,19.50
2009,05,25,15,13,19.60
2009,05,25,15,14,19.60
2009,05,25,15,15,19.60
2009,05,25,15,16,19.60
2009,05,25,15,17,19.70
2009,05,25,15,18,19.80
2009,05,25,15,19,19.90
2009,05,25,15,20,20.00
2009,05,25,15,21,20.20
2009,05,25,15,22,20.20
2009,05,25,15,23,20.20
2009,05,25,15,24,20.20
2009,05,25,15,25,20.10
2009,05,25,15,26,20.10
2009,05,25,15,27,20.20
2009,05,25,15,28,20.30
2009,05,25,15,29,20.50
2009,05,25,15,30,20.50
2009,05,25,15,31,20.50
2009,05,25,15,32,20.40
2009,05,25,15,33,20.40
2009,05,25,15,34,20.40
2009,05,25,15,35,20.50
2009,05,25,15,36,20.50
2009,05,25,15,37,20.50
2009,05,25,15,38,20.30
2009,05,25,15,39,20.00
2009,05,25,15,40,19.90
2009,05,25,15,41,19.90
2009,05,25,15,42,19.90
2009,05,25,15,43,19.70
2009,05,25,15,44,19.60
2009,05,25,15,45,19.60
2009,05,25,15,46,19.40
2009,05,25,15,47,19.40
2009,05,25,15,48,19.40
2009,05,25,15,49,19.40
2009,05,25,15,50,19.40
2009,05,25,15,51,19.40
2009,05,25,15,52,19.40
2009,05,25,15,53,19.30
2009,05,25,15,54,19.30
2009,05,25,15,55,19.20
2009,05,25,15,56,19.20
2009,05,25,15,57,19.10
2009,05,25,15,58,19.10
2009,05,25,15,59,19.10
2009,05,25,16,00,19.10
2009,05,25,16,01,18.90
2009,05,25,16,02,18.90
2009,05,25,16,03,18.90
2009,05,25,16,04,18.90
2009,05,25,16,05,18.90
2009,05,25,16,06,19.00
2009,05,25,16,07,19.10
2009,05,25,16,08,19.10
2009,05,25,16,09,19.20
2009,05,25,16,10,19.30
2009,05,25,16,11,19.30
2009,05,25,16,12,19.30
2009,05,25,16,13,19.40
2009,05,25,16,14,19.40
2009,05,25,16,15,19.50
2009,05,25,16,16,19.50
2009,05,25,16,17,19.40
2009,05,25,16,18,19.40
2009,05,25,16,19,19.40
2009,05,25,16,20,19.40
2009,05,25,16,21,19.50
2009,05,25,16,22,19.50
2009,05,25,16,23,19.50
2009,05,25,16,24,19.50
2009,05,25,16,25,19.50
2009,05,25,16,26,19.50
2009,05,25,16,27,19.40
2009,05,25,16,28,19.40
2009,05,25,16,29,19.30
2009,05,25,16,30,19.30
2009,05,25,16,31,19.40
2009,05,25,16,32,19.50
2009,05,25,16,33,19.40
2009,05,25,16,34,19.40
2009,05,25,16,35,19.40
2009,05,25,16,36,19.30
2009,05,25,16,37,19.30
2009,05,25,16,38,19.30
2009,05,25,16,39,19.30
2009,05,25,16,40,19.20
2009,05,25,16,41,19.20
2009,05,25,16,42,19.40
2009,05,25,16,43,19.40
2009,05,25,16,44,19.60
2009,05,25,16,45,19.70
2009,05,25,16,46,19.80
2009,05,25,16,47,19.90
2009,05,25,16,48,19.90
2009,05,25,16,49,19.90
2009,05,25,16,50,19.90
2009,05,25,16,51,19.80
2009,05,25,16,52,19.70
2009,05,25,16,53,19.60
2009,05,25,16,54,19.50
2009,05,25,16,55,19.50
2009,05,25,16,56,19.50
2009,05,25,16,57,19.40
2009,05,25,16,58,19.40
2009,05,25,16,59,19.40
2009,05,25,17,00,19.40
2009,05,25,17,01,19.40
2009,05,25,17,02,19.30
2009,05,25,17,03,19.30
2009,05,25,17,04,19.20
2009,05,25,17,05,19.20
2009,05,25,17,06,19.10
2009,05,25,17,07,19.20
2009,05,25,17,08,19.20
2009,05,25,17,09,19.10
2009,05,25,17,10,19.10
2009,05,25,17,11,19.10
2009,05,25,17,12,19.10
2009,05,25,17,13,19.10
2009,05,25,17,14,19.10
2009,05,25,17,15,19.10
2009,05,25,17,16,19.10
2009,05,25,17,17,19.10
2009,05,25,17,18,19.00
2009,05,25,17,19,18.90
2009,05,25,17,20,18.90
2009,05,25,17,21,18.90
2009,05,25,17,22,18.90
2009,05,25,17,23,18.90
2009,05,25,17,24,18.90
2009,05,25,17,25,18.80
2009,05,25,17,26,18.80
2009,05,25,17,27,18.80
2009,05,25,17,28,18.80
2009,05,25,17,29,18.80
2009,05,25,17,30,18.90
2009,05,25,17,31,18.80
2009,05,25,17,32,18.80
2009,05,25,17,33,18.80
2009,05,25,17,34,18.80
2009,05,25,17,35,18.90
2009,05,25,17,36,18.90
2009,05,25,17,37,18.90
2009,05,25,17,38,18.90
2009,05,25,17,39,18.80
2009,05,25,17,40,18.80
2009,05,25,17,41,18.80
2009,05,25,17,42,18.70
2009,05,25,17,43,18.70
2009,05,25,17,44,18.70
2009,05,25,17,45,18.70
2009,05,25,17,46,18.80
2009,05,25,17,47,18.80
2009,05,25,17,48,18.80
2009,05,25,17,49,18.90
2009,05,25,17,50,18.90
2009,05,25,17,51,18.90
2009,05,25,17,52,18.80
2009,05,25,17,53,18.80
2009,05,25,17,54,18.70
2009,05,25,17,55,18.60
2009,05,25,17,56,18.50
2009,05,25,17,57,18.50
2009,05,25,17,58,18.50
2009,05,25,17,59,18.40
2009,05,25,18,00,18.30
2009,05,25,18,01,18.30
2009,05,25,18,02,18.30
2009,05,25,18,03,18.30
2009,05,25,18,04,18.30
2009,05,25,18,05,18.20
2009,05,25,18,06,18.20
2009,05,25,18,07,18.20
2009,05,25,18,08,18.20
2009,05,25,18,09,18.20
2009,05,25,18,10,18.20
2009,05,25,18,11,18.10
2009,05,25,18,12,18.10
2009,05,25,18,13,18.10
2009,05,25,18,14,17.90
2009,05,25,18,15,17.90
2009,05,25,18,16,17.90
2009,05,25,18,17,17.80
2009,05,25,18,18,17.70
2009,05,25,18,19,17.60
2009,05,25,18,20,17.60
2009,05,25,18,21,17.50
2009,05,25,18,22,17.50
2009,05,25,18,23,17.50
2009,05,25,18,24,17.40
2009,05,25,18,25,17.40
2009,05,25,18,26,17.40
2009,05,25,18,27,17.50
2009,05,25,18,28,17.40
2009,05,25,18,29,17.40
2009,05,25,18,30,17.40
2009,05,25,18,31,17.40
2009,05,25,18,32,17.30
2009,05,25,18,33,17.30
2009,05,25,18,34,17.30
2009,05,25,18,35,17.30
2009,05,25,18,36,17.30
2009,05,25,18,37,17.30
2009,05,25,18,38,17.30
2009,05,25,18,39,17.30
2009,05,25,18,40,17.30
2009,05,25,18,41,17.30
2009,05,25,18,42,17.30
2009,05,25,18,43,17.20
2009,05,25,18,44,17.20
2009,05,25,18,45,17.20
2009,05,25,18,46,17.20
2009,05,25,18,47,17.20
2009,05,25,18,48,17.10
2009,05,25,18,49,17.10
2009,05,25,18,50,17.10
2009,05,25,18,51,17.10
2009,05,25,18,52,17.10
2009,05,25,18,53,17.10
2009,05,25,18,54,17.10
2009,05,25,18,55,17.10
2009,05,25,18,56,17.10
2009,05,25,18,57,17.00
2009,05,25,18,58,17.00
2009,05,25,18,59,17.00
2009,05,25,19,00,17.00
2009,05,25,19,01,17.00
2009,05,25,19,02,17.00
2009,05,25,19,03,17.00
2009,05,25,19,04,17.00
2009,05,25,19,05,17.00
2009,05,25,19,06,16.90
2009,05,25,19,07,16.90
2009,05,25,19,08,16.90
2009,05,25,19,09,16.90
2009,05,25,19,10,16.90
2009,05,25,19,11,16.90
2009,05,25,19,12,16.90
2009,05,25,19,13,16.90
2009,05,25,19,14,16.80
2009,05,25,19,15,16.80
2009,05,25,19,16,16.80
2009,05,25,19,17,16.80
2009,05,25,19,18,16.80
2009,05,25,19,19,16.80
2009,05,25,19,20,16.80
2009,05,25,19,21,16.80
2009,05,25,19,22,16.80
2009,05,25,19,23,16.80
2009,05,25,19,24,16.80
2009,05,25,19,25,16.80
2009,05,25,19,26,16.80
2009,05,25,19,27,16.80
2009,05,25,19,28,16.80
2009,05,25,19,29,16.80
2009,05,25,19,30,16.80
2009,05,25,19,31,16.80
2009,05,25,19,32,16.70
2009,05,25,19,33,16.70
2009,05,25,19,34,16.70
2009,05,25,19,35,16.70
2009,05,25,19,36,16.70
2009,05,25,19,37,16.70
2009,05,25,19,38,16.70
2009,05,25,19,39,16.70
2009,05,25,19,40,16.70
2009,05,25,19,41,16.70
2009,05,25,19,42,16.70
2009,05,25,19,43,16.70
2009,05,25,19,44,16.70
2009,05,25,19,45,16.70
2009,05,25,19,46,16.70
2009,05,25,19,47,16.70
2009,05,25,19,48,16.70
2009,05,25,19,49,16.70
2009,05,25,19,50,16.70
2009,05,25,19,51,16.70
2009,05,25,19,52,16.60
2009,05,25,19,53,16.60
2009,05,25,19,54,16.60
2009,05,25,19,55,16.50
2009,05,25,19,56,16.40
2009,05,25,19,57,16.40
2009,05,25,19,58,16.40
2009,05,25,19,59,16.40
2009,05,25,20,00,16.30
2009,05,25,20,01,16.30
2009,05,25,20,02,16.20
2009,05,25,20,03,16.20
2009,05,25,20,04,16.20
2009,05,25,20,05,16.10
2009,05,25,20,06,16.10
2009,05,25,20,07,16.10
2009,05,25,20,08,16.10
2009,05,25,20,09,16.10
2009,05,25,20,10,16.00
2009,05,25,20,11,15.90
2009,05,25,20,12,15.90
2009,05,25,20,13,15.80
2009,05,25,20,14,15.80
2009,05,25,20,15,15.80
2009,05,25,20,16,15.80
2009,05,25,20,17,15.80
2009,05,25,20,18,15.80
2009,05,25,20,19,15.80
2009,05,25,20,20,15.80
2009,05,25,20,21,15.70
2009,05,25,20,22,15.70
2009,05,25,20,23,15.70
2009,05,25,20,24,15.70
2009,05,25,20,25,15.70
2009,05,25,20,26,15.60
2009,05,25,20,27,15.60
2009,05,25,20,28,15.60
2009,05,25,20,29,15.60
2009,05,25,20,30,15.60
2009,05,25,20,31,15.60
2009,05,25,20,32,15.50
2009,05,25,20,33,15.50
2009,05,25,20,34,15.50
2009,05,25,20,35,15.50
2009,05,25,20,36,15.50
2009,05,25,20,37,15.50
2009,05,25,20,38,15.50
2009,05,25,20,39,15.40
2009,05,25,20,40,15.40
2009,05,25,20,41,15.40
2009,05,25,20,42,15.40
2009,05,25,20,43,15.40
2009,05,25,20,44,15.40
2009,05,25,20,45,15.40
2009,05,25,20,46,15.40
2009,05,25,20,47,15.40
2009,05,25,20,48,15.40
2009,05,25,20,49,15.40
2009,05,25,20,50,15.40
2009,05,25,20,51,15.40
2009,05,25,20,52,15.40
2009,05,25,20,53,15.40
2009,05,25,20,54,15.30
2009,05,25,20,55,15.30
2009,05,25,20,56,15.30
2009,05,25,20,57,15.30
2009,05,25,20,58,15.30
2009,05,25,20,59,15.30
2009,05,25,21,00,15.30
2009,05,25,21,01,15.30
2009,05,25,21,02,15.30
2009,05,25,21,03,15.30
2009,05,25,21,04,15.30
2009,05,25,21,05,15.30
2009,05,25,21,06,15.30
2009,05,25,21,07,15.30
2009,05,25,21,08,15.30
2009,05,25,21,09,15.30
2009,05,25,21,10,15.30
2009,05,25,21,11,15.30
2009,05,25,21,12,15.30
2009,05,25,21,13,15.30
2009,05,25,21,14,15.30
2009,05,25,21,15,15.30
2009,05,25,21,16,15.30
2009,05,25,21,17,15.30
2009,05,25,21,18,15.30
2009,05,25,21,19,15.30
2009,05,25,21,20,15.20
2009,05,25,21,21,15.20
2009,05,25,21,22,15.20
2009,05,25,21,23,15.20
2009,05,25,21,24,15.20
2009,05,25,21,25,15.20
2009,05,25,21,26,15.20
2009,05,25,21,27,15.10
2009,05,25,21,28,15.10
2009,05,25,21,29,15.10
2009,05,25,21,30,15.20
2009,05,25,21,31,15.20
2009,05,25,21,32,15.20
2009,05,25,21,33,15.20
2009,05,25,21,34,15.20
2009,05,25,21,35,15.10
2009,05,25,21,36,15.10
2009,05,25,21,37,15.10
2009,05,25,21,38,15.10
2009,05,25,21,39,15.10
2009,05,25,21,40,15.10
2009,05,25,21,41,15.10
2009,05,25,21,42,15.10
2009,05,25,21,43,15.10
2009,05,25,21,44,15.10
2009,05,25,21,45,15.10
2009,05,25,21,46,15.10
2009,05,25,21,47,15.10
2009,05,25,21,48,15.10
2009,05,25,21,49,15.10
2009,05,25,21,50,15.10
2009,05,25,21,51,15.00
2009,05,25,21,52,15.00
2009,05,25,21,53,15.00
2009,05,25,21,54,15.00
2009,05,25,21,55,15.00
2009,05,25,21,56,15.00
2009,05,25,21,57,15.00
2009,05,25,21,58,15.00
2009,05,25,21,59,15.00
2009,05,25,22,00,15.00
2009,05,25,22,01,15.00
2009,05,25,22,02,14.90
2009,05,25,22,03,14.90
2009,05,25,22,04,14.90
2009,05,25,22,05,14.90
2009,05,25,22,06,14.90
2009,05,25,22,07,14.90
2009,05,25,22,08,14.90
2009,05,25,22,09,14.90
2009,05,25,22,10,14.90
2009,05,25,22,11,14.90
2009,05,25,22,12,14.80
2009,05,25,22,13,14.80
2009,05,25,22,14,14.80
2009,05,25,22,15,14.80
2009,05,25,22,16,14.80
2009,05,25,22,17,14.80
2009,05,25,22,18,14.80
2009,05,25,22,19,14.80
2009,05,25,22,20,14.80
2009,05,25,22,21,14.80
2009,05,25,22,22,14.70
2009,05,25,22,23,14.70
2009,05,25,22,24,14.70
2009,05,25,22,25,14.70
2009,05,25,22,26,14.70
2009,05,25,22,27,14.60
2009,05,25,22,28,14.60
2009,05,25,22,29,14.60
2009,05,25,22,30,14.60
2009,05,25,22,31,14.60
2009,05,25,22,32,14.60
2009,05,25,22,33,14.60
2009,05,25,22,34,14.60
2009,05,25,22,35,14.60
2009,05,25,22,36,14.60
2009,05,25,22,37,14.60
2009,05,25,22,38,14.60
2009,05,25,22,39,14.60
2009,05,25,22,40,14.60
2009,05,25,22,41,14.60
2009,05,25,22,42,14.60
2009,05,25,22,43,14.60
2009,05,25,22,44,14.60
2009,05,25,22,45,14.60
2009,05,25,22,46,14.50
2009,05,25,22,47,14.50
2009,05,25,22,48,14.50
2009,05,25,22,49,14.50
2009,05,25,22,50,14.50
2009,05,25,22,51,14.50
2009,05,25,22,52,14.50
2009,05,25,22,53,14.50
2009,05,25,22,54,14.50
2009,05,25,22,55,14.50
2009,05,25,22,56,14.50
2009,05,25,22,57,14.50
2009,05,25,22,58,14.50
2009,05,25,22,59,14.50
2009,05,25,23,00,14.50
2009,05,25,23,01,14.50
2009,05,25,23,02,14.50
2009,05,25,23,03,14.50
2009,05,25,23,04,14.50
2009,05,25,23,05,14.50
2009,05,25,23,06,14.50
2009,05,25,23,07,14.50
2009,05,25,23,08,14.50
2009,05,25,23,09,14.50
2009,05,25,23,10,14.50
2009,05,25,23,11,14.50
2009,05,25,23,12,14.50
2009,05,25,23,13,14.50
2009,05,25,23,14,14.50
2009,05,25,23,15,14.50
2009,05,25,23,16,14.50
2009,05,25,23,17,14.50
2009,05,25,23,18,14.50
2009,05,25,23,19,14.60
2009,05,25,23,20,14.60
2009,05,25,23,21,14.60
2009,05,25,23,22,14.60
2009,05,25,23,23,14.60
2009,05,25,23,24,14.60
2009,05,25,23,25,14.60
2009,05,25,23,26,14.60
2009,05,25,23,27,14.60
2009,05,25,23,28,14.60
2009,05,25,23,29,14.60
2009,05,25,23,30,14.60
2009,05,25,23,31,14.60
2009,05,25,23,32,14.60
2009,05,25,23,33,14.60
2009,05,25,23,34,14.60
2009,05,25,23,35,14.60
2009,05,25,23,36,14.60
2009,05,25,23,37,14.60
2009,05,25,23,38,14.60
2009,05,25,23,39,14.60
2009,05,25,23,40,14.70
2009,05,25,23,41,14.70
2009,05,25,23,42,14.70
2009,05,25,23,43,14.70
2009,05,25,23,44,14.70
2009,05,25,23,45,14.70
2009,05,25,23,46,14.70
2009,05,25,23,47,14.70
2009,05,25,23,48,14.70
2009,05,25,23,49,14.70
2009,05,25,23,50,14.70
2009,05,25,23,51,14.70
2009,05,25,23,52,14.70
2009,05,25,23,53,14.70
2009,05,25,23,54,14.70
2009,05,25,23,55,14.70
2009,05,25,23,56,14.70
2009,05,25,23,57,14.70
2009,05,25,23,58,14.70
2009,05,25,23,59,14.70
